DW7253 Weather Reports


time (UTC)temp
C
wind
direction
speed
KPH
gust
KPH
rain 1hr
cm
rain 24hr
cm
rain mn
cm
humidity
%
barometer
mb
20260906101535 18 80 0.0 4.8 0.00 0.00 0.00 82 1013.4
20260906100033 18 80 0.0 3.2 0.00 0.00 0.00 82 1013.3
20260906094530 18 75 3.2 11.3 0.00 0.00 0.00 82 1013.2
20260906093026 19 104 0.0 6.4 0.00 0.00 0.00 83 1013.2
20260906091527 19 98 0.0 8.0 0.00 0.00 0.00 82 1013.0
20260906090025 19 140 1.6 11.3 0.00 0.00 0.00 83 1013.0
20260906084521 20 93 3.2 16.1 0.00 0.00 0.00 85 1012.8
20260906083023 20 71 3.2 6.4 0.00 0.00 0.00 85 1012.8
20260906081518 20 70 0.0 6.4 0.00 0.00 0.00 84 1012.8
20260906080026 20 89 1.6 8.0 0.00 0.00 0.00 84 1012.6
20260906074515 20 76 3.2 11.3 0.00 0.00 0.00 84 1012.6
20260906073015 20 68 4.8 8.0 0.00 0.00 0.00 83 1012.7
20260906071512 20 93 1.6 9.7 0.00 0.00 0.00 83 1012.7
20260906070011 21 66 3.2 12.9 0.00 0.00 0.00 82 1012.8
20260906064508 21 93 1.6 9.7 0.00 0.00 0.00 82 1012.6
20260906063009 21 68 3.2 8.0 0.00 0.00 0.00 81 1012.6
20260906061506 21 67 3.2 9.7 0.00 0.00 0.00 82 1012.6
20260906060004 21 84 1.6 9.7 0.00 0.00 0.00 82 1012.4
20260906054502 21 74 3.2 9.7 0.00 0.00 0.00 82 1012.3
20260906053001 21 80 1.6 8.0 0.00 0.00 0.00 82 1012.3
20260906051503 21 67 1.6 9.7 0.00 0.00 0.00 82 1012.3
20260906050059 21 82 1.6 12.9 0.00 0.00 0.00 82 1012.1
20260906044558 21 67 3.2 6.4 0.00 0.00 0.00 83 1012.1
20260906043102 21 64 3.2 11.3 0.00 0.00 0.00 83 1012.1
20260906041600 21 64 4.8 9.7 0.00 0.00 0.00 83 1011.9
20260906040053 21 69 3.2 8.0 0.00 0.00 0.00 83 1011.7
20260906034551 21 71 1.6 9.7 0.00 0.00 0.00 83 1011.7
20260906033104 21 71 1.6 8.0 0.00 0.00 0.00 83 1011.5
20260906031547 22 75 3.2 9.7 0.00 0.00 0.00 82 1011.5
20260906030050 22 59 1.6 9.7 0.00 0.00 0.00 82 1011.3
20260906024548 22 61 4.8 11.3 0.00 0.00 0.00 82 1011.3
20260906023050 22 76 1.6 12.9 0.00 0.00 0.00 82 1011.2
20260906021542 22 57 6.4 17.7 0.00 0.00 0.00 81 1011.1
20260906020052 22 76 6.4 17.7 0.00 0.00 0.00 81 1010.9
20260906014538 23 81 8.0 14.5 0.00 0.00 0.00 79 1010.7
20260906013048 23 65 6.4 16.1 0.00 0.00 0.00 79 1010.8
20260906011549 23 77 6.4 20.9 0.00 0.00 0.00 78 1010.6
20260906010039 24 69 8.0 17.7 0.00 0.00 0.00 77 1010.3
20260906004532 25 90 9.7 16.1 0.00 0.00 0.00 76 1010.0
20260906003032 25 73 8.0 16.1 0.00 0.00 0.00 73 1010.0
20260906001531 26 29 3.2 12.9 0.00 0.00 0.00 72 1009.8
20260906000046 26 43 4.8 11.3 0.00 0.00 0.00 70 1009.6
20260905234530 27 59 3.2 12.9 0.00 0.00 0.00 69 1009.4
20260905233029 27 26 3.2 9.7 0.00 0.00 0.00 68 1009.3
20260905231530 27 14 6.4 16.1 0.00 0.00 0.00 72 1009.3
20260905230029 27 358 4.8 19.3 0.00 0.00 0.00 70 1009.1
20260905224532 28 356 3.2 17.7 0.00 0.00 0.00 69 1008.9
20260905223028 29 42 1.6 11.3 0.00 0.00 0.00 67 1008.9
20260905221527 29 13 4.8 16.1 0.00 0.00 0.00 67 1008.6
20260905220027 29 19 4.8 16.1 0.00 0.00 0.00 67 1008.5
20260905214526 29 328 4.8 17.7 0.00 0.00 0.00 67 1008.4
20260905213029 30 313 6.4 19.3 0.00 0.00 0.00 64 1008.3
20260905211525 30 320 4.8 17.7 0.00 0.00 0.00 62 1008.2
20260905210024 30 12 4.8 17.7 0.00 0.00 0.00 63 1008.2
20260905204533 30 353 1.6 14.5 0.00 0.00 0.00 63 1008.3
20260905203022 30 359 8.0 19.3 0.00 0.00 0.00 62 1008.4
20260905201522 30 354 6.4 14.5 0.00 0.00 0.00 62 1008.6
20260905200027 30 26 6.4 14.5 0.00 0.00 0.00 64 1008.6
20260905194518 30 64 1.6 12.9 0.00 0.00 0.00 64 1008.7
20260905193015 30 360 1.6 16.1 0.00 0.00 0.00 64 1008.8
20260905191514 30 358 3.2 8.0 0.00 0.00 0.00 65 1008.9
20260905190013 30 36 3.2 8.0 0.00 0.00 0.00 67 1009.0
20260905184533 29 64 1.6 11.3 0.00 0.00 0.00 66 1009.2
20260905183032 29 5 3.2 9.7 0.00 0.00 0.00 66 1009.4
20260905181508 28 358 3.2 9.7 0.00 0.00 0.00 68 1009.5
20260905180005 28 60 0.0 4.8 0.00 0.00 0.00 69 1009.6
20260905174501 27 99 0.0 6.4 0.00 0.00 0.00 72 1009.7
20260905173109 27 135 0.0 4.8 0.00 0.00 0.00 73 1009.9
20260905171612 27 151 1.6 4.8 0.00 0.00 0.00 72 1010.0
20260905170055 27 138 1.6 4.8 0.00 0.00 0.00 74 1010.0
20260905164552 26 262 0.0 4.8 0.00 0.00 0.00 75 1010.1
20260905163053 26 236 0.0 4.8 0.00 0.00 0.00 75 1010.1
20260905161550 26 242 0.0 4.8 0.00 0.00 0.00 76 1010.2
20260905160052 26 247 1.6 6.4 0.00 0.00 0.00 76 1010.2
20260905154609 25 128 0.0 8.0 0.00 0.00 0.00 76 1010.1
20260905153048 25 109 3.2 6.4 0.00 0.00 0.00 76 1010.1
20260905151545 25 126 1.6 6.4 0.00 0.00 0.00 76 1010.0
20260905150043 25 182 0.0 4.8 0.00 0.00 0.00 77 1010.0
20260905144541 25 211 0.0 6.4 0.00 0.00 0.00 78 1009.8
20260905143040 24 268 1.6 11.3 0.00 0.00 0.00 80 1009.8
20260905141538 23 211 4.8 12.9 0.00 0.00 0.00 80 1009.7
20260905140041 23 194 3.2 9.7 0.00 0.00 0.00 80 1009.7
20260905134533 23 202 1.6 14.5 0.00 0.00 0.00 82 1009.4
20260905133041 22 249 6.4 11.3 0.00 0.00 0.00 82 1009.2
20260905131533 22 203 4.8 11.3 0.00 0.00 0.00 83 1009.4
20260905130032 22 239 4.8 11.3 0.00 0.00 0.00 84 1009.3
20260905124531 22 159 4.8 11.3 0.00 0.00 0.00 85 1009.3
20260905123026 22 183 0.0 8.0 0.00 0.00 0.00 86 1009.4
20260905121524 22 148 1.6 6.4 0.00 0.00 0.00 86 1009.2
20260905120021 22 147 1.6 6.4 0.00 0.00 0.00 86 1009.1
20260905114520 22 194 4.8 11.3 0.00 0.00 0.00 86 1008.9
20260905113016 22 175 4.8 8.0 0.00 0.00 0.00 85 1008.7
20260905111528 22 147 0.0 6.4 0.00 0.00 0.00 84 1008.5
20260905110031 22 146 1.6 6.4 0.00 0.00 0.00 83 1008.4
20260905104513 22 145 0.0 4.8 0.00 0.00 0.00 82 1008.4
20260905103013 22 145 0.0 3.2 0.00 0.00 0.00 82 1008.5